Dewpoint
69 70 71 71 71 71 71 71 72 72 71 71 71 71 71 72 72 72 72 72 72 72 72 73 73 73 73 74 74 75 75 75 75 75 75 74 74 74 73 73 73 73 73 73 74 74 73 72 72 72 72 72 72 73 73 73 72 72 72 71 70 70 68 66 65 66 67 68 70 71 72 73 72 72 71 71 72 73 74 73 74 74 74 74 74
70 71 71 71 71 71 71 71 71 72 71 71 71 71 71 71 71 71 71 71 72 72 71 72 73 73 73 73 74 74 75 75 75 75 75 74 74 74 74 73 73 73 72 72 73 73 72 71 72 72 71 71 72 73 73 72 72 72 71 72 70 70 70 67 66 66 66 68 68 70 71 73 71 71 70 71 72 74 73 73 73 73 73 74 74
71 71 71 71 70 71 71 71 71 71 71 70 70 70 70 70 71 71 70 70 71 71 71 71 73 73 73 73 73 74 74 74 74 75 75 74 74 74 74 73 73 73 73 73 73 72 72 72 72 72 72 71 72 72 73 72 72 71 71 71 71 71 70 70 68 67 67 68 68 69 70 71 70 70 71 72 73 73 73 72 72 73 73 73 73
73 72 72 72 71 71 70 70 70 70 70 70 70 70 69 69 70 70 70 70 69 70 71 71 71 73 73 73 73 73 73 74 74 74 74 74 74 74 73 73 73 73 73 73 73 73 73 72 72 72 71 71 71 71 71 72 71 71 70 70 70 71 71 71 70 69 68 67 68 68 69 69 71 72 73 73 73 73 72 72 73 72 73 73 73
73 72 72 72 72 71 70 70 70 70 70 70 69 69 69 69 69 69 69 69 69 69 70 71 71 72 72 73 72 72 73 73 73 73 74 74 74 74 73 73 73 73 73 73 75 73 73 72 72 72 71 70 70 70 71 70 71 70 70 70 70 70 71 71 71 70 69 69 69 69 70 70 71 72 72 71 71 71 71 71 72 72 72 73 73
72 72 72 72 71 71 71 70 70 70 69 69 69 69 69 69 68 68 68 67 68 68 68 69 71 71 72 72 72 72 72 72 73 73 73 73 74 74 74 73 73 72 73 73 73 73 73 73 73 72 71 70 70 70 70 70 70 70 70 70 70 69 69 70 70 70 70 70 69 69 68 69 69 69 70 70 70 70 71 71 71 70 70 70 69
72 72 72 71 70 70 71 71 71 70 70 70 69 69 69 69 68 68 68 68 67 66 67 68 70 71 71 71 72 72 72 72 72 72 72 72 73 73 73 73 73 72 72 72 73 73 73 73 73 72 72 71 71 70 70 70 70 70 70 70 69 68 69 69 69 69 69 68 68 69 69 69 69 69 69 70 70 71 70 70 69 68 67 68 69
72 71 71 71 70 70 71 71 71 71 71 71 70 69 68 67 67 68 68 67 67 66 66 66 67 69 70 71 71 72 72 71 71 72 72 72 72 72 72 72 72 72 72 72 72 72 72 72 72 72 72 72 72 71 71 70 70 69 70 69 69 68 68 68 67 68 68 68 68 68 66 67 67 69 70 68 68 67 69 69 67 67 68 68 68
71 71 71 70 70 71 71 71 71 70 71 70 70 70 69 68 68 67 67 67 67 66 66 65 66 68 69 70 71 71 71 71 71 71 71 71 71 71 71 72 72 71 71 71 72 72 72 72 72 72 73 75 75 74 74 73 70 69 69 69 69 68 68 68 68 66 66 66 66 67 66 67 68 68 67 66 66 66 66 66 66 68 68 68 68
71 71 71 71 71 71 71 72 71 70 70 69 69 70 70 70 69 68 67 67 66 67 66 65 65 66 67 68 69 70 71 71 72 69 70 71 71 70 70 71 71 71 71 71 71 71 71 71 72 75 75 76 76 75 73 74 75 72 69 69 69 68 68 67 67 67 66 66 66 66 66 66 66 66 66 66 67 66 67 67 66 67 66 66 67
71 71 70 71 71 71 71 71 71 71 70 70 70 69 70 70 70 69 68 67 67 67 68 65 64 64 65 66 67 68 69 70 68 65 65 67 71 70 70 70 70 70 70 70 70 70 70 70 70 72 75 77 76 74 74 73 73 74 74 74 73 69 68 67 67 67 67 66 66 66 66 66 66 66 66 67 67 67 67 67 67 66 65 63 64
70 70 71 72 71 71 72 71 71 71 71 71 70 70 70 70 69 69 69 68 68 67 67 67 66 64 64 64 66 67 67 68 64 64 64 64 68 71 70 69 69 69 69 69 69 69 69 69 70 70 70 71 71 73 74 73 71 71 71 71 72 73 72 69 68 67 67 66 66 66 66 66 66 67 67 67 68 67 67 67 66 65 65 64 63
68 68 69 70 70 71 72 72 72 71 71 71 71 71 70 70 70 70 69 69 68 67 66 66 67 67 65 64 64 65 67 65 63 62 63 63 63 68 70 70 69 69 69 69 69 69 69 69 69 70 69 74 74 71 70 70 70 69 70 70 71 70 68 68 69 70 68 67 67 66 67 67 67 68 68 68 68 66 65 66 65 65 66 65 66
68 68 68 69 69 70 70 71 71 72 72 72 72 71 71 71 71 71 71 71 70 68 67 66 67 68 69 66 65 64 65 65 62 61 61 61 62 64 69 69 69 69 69 69 69 69 69 69 69 69 69 70 70 70 70 70 69 69 69 69 70 71 71 68 67 68 69 69 68 67 68 68 67 67 69 68 67 66 66 65 65 65 65 65 66
67 68 68 68 69 69 69 69 70 71 71 72 72 71 70 70 71 71 71 71 71 70 70 68 68 68 69 71 70 69 67 64 61 59 59 59 60 62 66 68 69 69 69 69 69 69 69 69 69 69 69 69 69 70 69 69 68 68 68 68 68 69 69 69 70 70 69 69 69 69 69 69 69 69 69 69 68 68 67 66 66 66 67 68 67
65 67 67 68 68 68 69 69 69 69 68 69 69 68 69 70 70 70 72 71 72 72 71 71 70 70 70 70 70 70 70 62 60 59 58 58 59 64 65 66 67 68 69 70 70 70 70 70 69 69 69 69 70 68 70 69 67 67 66 66 66 67 67 69 66 67 69 69 69 69 69 69 67 69 69 69 69 69 68 66 66 65 65 64 63
61 63 65 66 67 66 67 67 68 69 67 67 68 69 69 71 71 71 71 71 72 72 71 72 71 71 71 70 70 70 70 64 58 57 56 57 59 64 65 66 66 67 67 68 69 70 70 70 70 69 69 69 68 64 64 69 68 67 67 66 66 65 66 66 65 63 63 62 63 64 64 64 63 62 61 62 66 67 64 62 63 63 63 63 64
57 60 61 63 66 65 65 65 65 67 69 66 66 67 68 70 71 73 71 70 70 71 72 72 72 71 71 71 71 70 70 67 57 55 54 55 61 63 63 64 65 66 66 67 68 68 69 72 74 70 69 69 65 63 63 66 67 67 67 66 66 66 66 66 66 66 62 61 60 61 61 62 62 62 62 61 61 64 64 63 63 63 64 64 64
57 58 60 61 60 62 61 62 64 65 65 67 67 66 66 68 70 71 71 71 71 71 71 72 72 72 72 72 73 72 71 69 58 55 53 54 61 63 63 63 63 63 64 64 65 66 67 71 73 71 70 68 63 62 61 65 67 67 67 66 66 65 65 65 65 65 66 66 67 67 67 66 66 65 66 64 64 68 65 64 64 65 65 65 65
57 58 58 58 58 59 59 61 62 62 63 64 66 67 68 67 67 69 70 70 70 72 72 72 72 72 73 73 72 72 72 71 68 56 54 53 57 67 66 65 65 65 65 65 65 65 66 66 68 63 62 61 61 60 59 59 65 67 67 66 66 65 66 66 66 66 66 67 66 67 68 69 69 69 69 68 69 69 67 66 65 66 66 66 66
57 58 58 57 58 58 58 60 60 60 62 63 63 64 66 66 66 67 68 69 69 70 70 71 71 71 72 72 73 73 73 72 70 58 53 53 54 60 67 67 67 67 67 67 67 67 67 67 67 65 60 57 57 56 56 57 60 65 66 66 66 67 68 66 67 72 68 67 67 67 67 67 67 68 68 68 69 69 69 68 68 67 67 66 65
57 57 57 57 57 57 58 59 60 60 60 61 60 61 63 65 67 67 68 68 68 68 67 68 69 70 70 70 71 72 72 73 72 61 54 53 52 52 64 68 68 69 69 68 68 67 67 67 68 66 62 58 55 53 53 54 56 64 65 60 61 62 66 68 67 67 67 68 68 68 68 68 68 68 68 68 68 68 68 68 68 68 67 66 66
57 56 56 56 57 56 58 58 59 59 60 61 60 61 63 64 65 66 67 67 67 66 65 65 66 67 69 70 70 71 71 72 69 70 59 54 53 52 54 60 61 68 69 68 69 69 69 69 69 67 55 53 51 51 52 52 55 59 56 56 57 58 63 65 66 66 66 66 67 67 67 67 67 68 68 68 69 69 69 69 69 68 68 67 67
56 55 55 54 55 56 57 58 58 57 59 60 61 61 62 64 65 66 67 67 65 64 64 64 66 68 69 69 70 71 71 72 70 68 66 57 52 51 51 52 55 63 67 67 68 68 68 69 68 56 52 50 51 52 53 54 59 55 54 55 57 60 63 64 64 65 66 66 66 66 67 68 68 68 68 69 69 69 69 70 70 70 69 68 68
57 53 52 52 54 54 55 56 56 55 56 58 59 60 60 62 62 62 65 65 65 64 64 66 67 69 69 67 68 69 70 71 71 70 66 65 61 57 55 54 53 52 59 65 67 68 65 57 53 53 54 54 53 54 57 59 56 53 53 54 59 63 64 65 65 66 66 66 66 67 67 68 68 69 69 70 70 70 70 70 70 70 70 71 70
56 53 52 53 52 54 54 54 53 53 54 55 57 58 58 60 61 61 61 61 62 64 65 67 68 67 67 67 67 68 69 70 69 68 67 67 66 63 62 59 60 58 60 62 60 57 54 53 53 53 55 58 63 65 66 66 62 60 58 59 61 63 64 65 65 66 66 66 66 66 67 68 68 69 69 69 69 69 69 69 69 69 70 69 69
55 53 51 52 53 53 54 53 52 52 53 53 54 56 57 58 58 60 59 59 60 62 62 63 63 64 65 65 66 67 68 68 67 66 66 66 67 69 68 67 66 65 65 65 64 65 65 65 64 61 60 61 61 61 61 63 64 65 66 66 65 64 65 65 66 66 66 66 66 66 67 67 68 68 68 68 68 69 69 69 69 69 69 69 68
52 51 51 52 54 55 55 56 54 52 52 53 52 53 55 57 57 57 57 57 59 59 59 60 60 61 61 62 64 65 65 66 66 66 66 67 67 68 67 66 65 65 66 64 63 64 66 65 64 67 67 67 67 66 66 65 65 65 66 66 67 67 67 67 67 67 66 67 67 67 67 67 67 67 68 68 68 68 68 69 68 68 69 68 68
54 51 52 52 52 56 57 54 53 53 52 52 52 53 55 55 56 56 56 58 59 57 56 56 58 57 60 61 62 62 63 63 64 58 58 52 58 60 61 62 61 61 62 54 60 63 64 64 65 65 66 66 66 67 68 68 68 67 67 67 67 67 67 67 66 66 67 67 66 66 66 67 67 68 68 68 68 68 69 69 69 69 69 68 68
52 51 52 52 52 55 55 53 53 54 53 52 52 52 54 54 53 55 54 56 54 52 53 55 56 56 58 60 61 61 61 62 57 46 44 45 44 45 47 45 43 52 54 51 57 61 63 64 64 65 65 65 65 66 66 67 67 68 68 66 68 69 68 68 67 66 66 66 66 66 66 67 67 67 67 67 67 68 68 67 68 69 68 68 68
53 52 54 53 55 55 54 53 54 53 53 52 52 53 52 52 49 48 49 52 49 45 45 46 48 50 57 58 57 56 55 52 47 44 44 44 44 44 43 43 43 43 44 54 62 62 63 63 63 64 64 65 65 66 67 67 67 67 67 68 69 68 68 68 68 67 66 66 66 67 67 67 67 67 67 67 67 67 68 68 68 68 68 68 68
51 51 53 54 55 56 53 53 54 54 53 52 52 52 51 51 50 47 46 47 47 46 45 46 46 45 45 49 55 54 51 48 46 44 43 43 44 43 42 42 42 41 43 47 61 62 63 63 63 63 64 64 65 65 66 66 67 67 68 68 68 68 69 69 69 69 68 68 68 67 68 67 67 67 67 67 66 67 67 67 68 68 68 68 68
50 50 53 54 54 54 54 53 53 52 52 52 51 52 51 52 50 50 51 48 47 46 46 47 47 47 44 43 46 48 48 47 45 44 43 44 42 42 42 41 42 41 45 58 61 62 63 63 63 63 63 64 64 65 66 66 67 67 67 68 68 68 69 69 68 69 69 69 69 69 69 68 68 67 66 66 66 67 67 67 67 67 67 67 67
49 50 51 53 53 52 51 51 52 52 51 51 52 53 53 53 52 52 52 52 52 50 48 48 48 49 49 48 47 47 46 45 45 44 43 43 43 42 42 47 41 40 48 59 61 62 62 62 61 61 61 61 61 61 62 64 65 66 67 68 68 69 70 70 70 69 69 69 69 68 68 68 68 68 68 68 68 68 68 67 68 67 67 67 67
48 51 52 52 51 51 51 52 52 52 52 53 52 53 53 54 55 55 54 53 53 53 54 55 52 49 52 50 49 47 44 43 43 42 42 43 42 43 41 57 60 59 54 56 60 61 60 60 59 59 59 59 59 59 60 60 61 62 63 64 65 66 66 67 68 67 67 68 69 69 69 68 69 68 68 68 68 68 68 68 68 68 68 68 68
48 48 48 50 51 51 51 51 51 51 52 52 54 55 56 55 55 55 53 54 55 54 54 54 55 53 52 50 48 46 44 43 43 45 44 43 44 43 58 58 59 60 60 58 57 58 57 57 57 56 56 56 57 57 58 58 59 60 61 62 63 63 64 64 64 64 65 66 67 68 67 69 69 68 69 69 68 68 68 68 68 68 68 68 68
47 47 47 48 50 50 51 51 50 52 54 54 53 54 55 55 56 54 54 54 55 55 54 54 55 56 55 56 55 51 49 45 45 44 44 45 41 50 60 60 59 58 57 56 56 55 54 54 54 54 54 54 54 54 55 56 57 59 59 61 61 61 62 62 62 63 64 64 65 66 66 68 68 69 69 68 68 68 68 68 68 67 66 66 65
47 47 48 49 49 50 49 50 51 52 53 53 54 53 55 55 55 54 54 54 55 55 54 54 55 55 54 54 58 57 57 45 45 48 45 47 52 56 56 57 56 55 55 54 54 53 53 52 53 52 53 53 52 53 54 54 56 57 57 57 58 59 59 60 61 61 62 62 63 63 64 64 66 67 67 67 67 68 68 68 68 68 67 66 66
46 49 49 50 50 49 49 51 52 52 52 53 53 53 52 53 53 53 53 54 54 54 55 54 54 55 55 55 54 57 56 55 55 55 55 55 55 55 54 55 54 54 53 52 52 52 51 51 51 51 52 51 52 51 51 52 54 54 54 55 55 56 56 57 58 58 59 59 60 60 61 63 64 65 65 65 65 65 66 67 68 68 68 68 68
47 46 49 48 50 50 50 49 50 51 52 51 50 50 50 50 51 52 52 52 52 53 54 54 54 54 55 55 55 55 55 56 55 55 55 54 54 54 53 53 52 53 52 51 51 50 50 49 50 50 50 50 50 50 51 51 51 52 52 52 53 52 52 53 54 55 56 56 57 58 59 60 61 62 62 63 64 65 65 66 66 67 68 68 68
46 47 48 48 47 47 48 49 49 50 48 47 46 47 48 49 50 51 52 52 51 52 53 54 53 54 54 52 50 48 52 55 55 55 55 54 54 52 52 51 52 51 52 51 50 50 49 49 49 49 50 50 50 50 50 49 49 50 50 50 50 50 50 51 52 53 54 55 56 56 57 58 58 57 57 58 58 59 61 62 63 64 65 66 67
47 46 46 46 47 47 47 47 47 45 46 46 46 47 48 50 50 50 50 49 50 51 52 52 53 54 52 50 48 45 48 53 55 54 54 53 53 52 52 50 50 49 49 49 48 49 49 48 49 49 49 49 49 49 49 48 48 48 48 48 48 49 49 49 50 51 51 52 52 53 53 54 54 54 54 54 56 56 57 58 59 60 61 63 64
45 45 44 45 44 45 44 43 44 44 45 45 46 46 47 49 49 50 50 51 51 51 51 52 53 54 54 51 51 50 50 52 55 55 53 52 51 52 51 50 49 48 48 48 48 47 47 47 47 48 48 48 48 48 48 47 48 48 48 48 48 48 48 48 48 48 48 49 50 50 49 49 49 50 51 52 53 54 55 56 57 58 59 60 61
44 44 44 44 43 44 44 44 44 45 45 46 46 47 48 49 50 50 50 50 50 51 52 52 53 53 53 53 52 51 52 52 53 53 52 51 50 50 49 47 47 46 46 46 46 46 46 46 47 47 47 47 47 47 48 48 48 48 48 48 48 48 48 48 47 46 46 46 46 46 46 47 48 48 49 50 50 51 52 54 55 56 57 58 60
42 44 44 44 44 45 44 46 46 46 47 48 47 47 50 49 49 49 49 49 51 51 51 52 53 53 53 53 53 53 52 52 53 52 51 50 50 49 48 47 47 46 45 46 45 45 45 46 46 46 46 46 46 46 47 47 48 48 48 48 47 47 46 46 45 45 44 45 44 44 44 45 45 46 47 48 50 50 51 52 53 54 55 56 57
43 43 43 43 43 44 44 45 47 46 46 46 46 46 46 46 47 49 49 50 51 51 52 52 52 52 53 52 53 53 52 51 51 51 51 50 50 49 48 47 47 47 47 46 45 44 45 45 46 46 46 46 46 46 46 46 47 47 47 47 46 45 45 44 44 44 43 43 43 43 43 43 43 45 47 48 49 51 51 52 53 55 55 56 58
42 42 42 42 42 43 43 43 43 43 44 43 44 44 44 46 46 48 48 49 50 51 51 50 50 50 51 51 51 50 49 50 50 50 50 49 48 47 46 47 47 46 45 45 44 44 44 45 45 46 46 46 46 45 45 44 44 44 45 44 44 44 44 43 43 43 43 43 43 42 41 42 42 44 45 46 48 49 51 52 53 54 56 57 58
41 41 40 41 41 40 40 41 41 44 42 42 42 43 43 43 44 45 46 47 49 49 49 49 48 48 49 49 49 49 50 49 48 49 48 47 46 45 45 45 46 45 45 44 44 44 44 44 44 43 44 44 44 44 43 42 42 42 42 42 43 43 43 44 43 42 42 41 41 41 41 41 41 42 43 45 48 49 50 51 52 54 56 57 57
39 39 38 38 39 39 40 40 42 40 39 40 41 41 42 42 42 43 44 44 45 46 47 47 47 47 47 47 48 48 48 49 47 47 46 45 45 45 44 45 45 44 44 43 43 42 42 42 43 43 42 42 42 42 41 41 41 40 40 40 41 42 40 40 40 40 40 40 40 40 40 40 40 42 44 46 48 48 50 51 52 53 55 55 55
38 38 37 37 38 38 39 38 37 37 39 38 39 40 41 41 41 41 41 42 43 44 45 46 46 46 45 46 46 47 47 46 45 45 45 45 44 44 44 43 43 42 42 42 42 41 41 41 41 41 42 41 41 40 40 40 39 39 39 39 39 38 38 39 40 41 40 39 39 40 40 41 41 42 44 45 47 49 50 51 53 54 53 53 53
38 36 36 36 36 37 36 35 35 36 36 36 39 40 39 39 39 39 40 41 42 43 44 45 45 45 45 45 47 45 45 45 46 46 45 44 43 43 43 43 43 42 42 42 41 40 40 40 41 41 41 41 41 40 39 39 39 38 38 39 37 37 36 37 37 36 37 38 37 38 39 40 42 43 46 47 49 50 52 52 52 52 51 51 51